User: anonymous   Login
Location: Unspecified
(0.0000°N, 0.0000°E)
Time: 19:13:30
(UTC+00:00)
Language:

NUSTAR - Orbit

View from above orbital plane
View from above orbital plane
View from above satellite
View from above satellite

Ground track
Ground track

The orbit data is extracted from the following two-line orbital elements,

1 38358U 12031A   19107.03791120 +.00000975 +00000-0 +28367-4 0  9996
2 38358 006.0258 133.3487 0012135 212.8197 147.1178 14.88134220372230
Epoch (UTC): 17 April 2019 00:54:35
Eccentricity: 0.0012135
inclination: 6.0258°
perigee height: 595 km
apogee height: 612 km
right ascension of ascending node: 133.3487°
argument of perigee: 212.8197°
revolutions per day: 14.88134220
mean anomaly at epoch: 147.1178°
orbit number at epoch: 37223

The dashed part of the orbit path shows where the satellite is in the earth's shadow,  

DLR